Stations météo

Publicité
Millau, France (7558): Température de l'air & dewpoint: 11.12.2018 12:00:00 - 17.12.2018 12:00:00 (CET)Millau, France (7558): Température de l'air 5cm: 11.12.2018 12:00:00 - 17.12.2018 12:00:00 (CET)Millau, France (7558): Température de l'air -20cm & Température de l'air -100cm: 11.12.2018 12:00:00 - 17.12.2018 12:00:00 (CET)Millau, France (7558): Vitesse du vent & gusts: 11.12.2018 12:00:00 - 17.12.2018 12:00:00 (CET)Millau, France (7558): Direction du vent: 11.12.2018 12:00:00 - 17.12.2018 12:00:00 (CET)Millau, France (7558): reduced air pressure: 11.12.2018 12:00:00 - 17.12.2018 12:00:00 (CET)Millau, France (7558): visibility: 11.12.2018 12:00:00 - 17.12.2018 12:00:00 (CET)Millau, France (7558): Ensoleillement: 11.12.2018 12:00:00 - 17.12.2018 12:00:00 (CET)Millau, France (7558): Quantités de précipitations: 11.12.2018 12:00:00 - 17.12.2018 12:00:00 (CET)
Date & Time tt [°C] td [°C] tt 5cm [°C] tt -20cm [°C] tt -100cm [°C] ff [km/h] ff [knt] fx [km/h] fx [knt] dd ppp [hPa] vv [km] sd [min] rr [mm]
17.12.2018 12:00:00 6,6 2,5 5,4 6,4 8,7 28 15 53 28 NW 1026,8 20 27 0,0
17.12.2018 11:00:00 5,5 2,3 4,8 6,5 8,7 30 16 46 25 NNW 1027,0 20 4 0,0
17.12.2018 10:00:00 4,7 2,4 3,7 6,5 8,7 15 8 38 21 WNW 1026,9 20 11 0,0
17.12.2018 09:00:00 4,4 2,1 3,1 6,5 8,7 20 11 32 18 WNW 1026,0 20 16 0,0
17.12.2018 08:00:00 4,1 1,6 3,0 6,5 8,7 20 11 33 18 NW 1025,6 20 0 0,0
17.12.2018 07:00:00 4,5 1,9 3,6 6,5 8,7 21 11 35 19 NNW 1024,5 20 0 0,0
17.12.2018 06:00:00 4,4 1,9 3,0 6,5 8,7 16 9 42 23 WNW 1023,0 20 0 0,0
17.12.2018 05:00:00 4,0 2,2 2,2 6,5 8,7 11 6 41 22 ENE 1022,5 20 0 0,0
17.12.2018 04:00:00 4,0 2,0 2,5 6,6 8,7 34 18 77 42 NW 1020,9 20 0 0,0
17.12.2018 03:00:00 4,4 2,1 2,9 6,6 8,7 55 30 77 41 WNW 1019,4 20 0 0,4
17.12.2018 02:00:00 4,3 2,6 3,1 6,6 8,7 31 17 52 28 WNW 1019,6 18 0 0,0
17.12.2018 01:00:00 5,0 2,7 3,7 6,6 8,7 39 21 70 38 NW 1019,2 20 0 0,0
17.12.2018 00:00:00 4,5 4,2 3,8 6,6 8,7 15 8 28 15 W 1018,4 0,9 0 0,8
16.12.2018 23:00:00 4,5 3,6 3,7 6,6 8,7 11 6 29 16 WSW 1018,0 7 0 0,2
16.12.2018 22:00:00 5,0 3,7 4,0 6,6 8,7 18 10 40 22 W 1017,4 20 0 0,0
16.12.2018 21:00:00 5,2 3,8 3,2 6,5 8,7 20 11 36 19 W 1016,6 20 0 0,0
16.12.2018 20:00:00 5,1 3,6 3,7 6,5 8,8 18 10 51 27 NNW 1015,6 20 0 0,2
16.12.2018 19:00:00 6,3 6,2 5,5 6,5 8,8 18 10 30 16 WSW 1014,2 2,8 0 0,4
16.12.2018 18:00:00 6,0 5,7 5,1 6,5 8,8 11 6 30 16 WSW 1013,0 16 0 0,4
16.12.2018 17:00:00 5,8 5,5 5,2 6,4 8,8 15 8 26 14 S 1013,4 1,2 0 0,2
16.12.2018 16:00:00 6,1 5,5 5,5 6,4 8,8 8 5 15 8 E 1013,0 20 0 0,0
16.12.2018 15:00:00 5,8 5,7 4,8 6,4 8,8 12 7 23 13 ESE 1012,9 20 0 0,2
16.12.2018 14:00:00 5,2 5,1 5,1 6,3 8,8 11 6 18 10 NNE 1014,1 0,1 0 0,0
16.12.2018 13:00:00 5,6 5,5 5,3 6,3 8,8 9 5 13 7 SW 1015,7 0,3 0 0,0
16.12.2018 12:00:00 5,5 5,4 5,1 6,3 8,8 8 4 11 6 WSW 1016,2 12 0 0,0
16.12.2018 11:00:00 5,6 5,3 4,9 6,3 8,9 4 2 16 9 SSE 1016,4 14 0 0,0
16.12.2018 10:00:00 5,2 4,9 4,8 6,2 8,8 14 8 20 11 ESE 1016,2 0,3 0 0,2
16.12.2018 09:00:00 5,0 5,0 4,0 6,2 8,9 8 4 23 12 NNE 1017,4 0,8 0 0,8
16.12.2018 08:00:00 4,3 4,2 3,9 6,2 8,9 6 3 9 5 NNE 1017,6 0,2 0 0,0
16.12.2018 07:00:00 4,5 4,4 4,1 6,2 8,9 2 1 6 4 WSW 1017,1 0,2 0 0,4
16.12.2018 06:00:00 4,4 4,3 3,4 6,2 8,9 2 1 10 5 SSE 1017,4 0,2 0 0,6
16.12.2018 05:00:00 4,0 3,9 2,7 6,2 8,9 4 2 11 6 S 1017,6 0,2 0 0,0
16.12.2018 04:00:00 3,7 3,6 3,3 6,2 8,9 3 1 11 6 ENE 1018,2 0,2 0 0,4
16.12.2018 03:00:00 3,8 3,5 2,6 6,2 9,0 4 2 9 5 SE 1018,3 0,6 0 0,8
16.12.2018 02:00:00 3,5 3,2 2,8 6,2 9,0 6 3 14 8 ENE 1018,3 2,1 0 3,0
16.12.2018 01:00:00 3,4 2,8 2,6 6,2 9,0 5 3 8 4 NNE 1018,3 4,5 0 1,0
16.12.2018 00:00:00 2,7 2,1 2,1 6,2 9,0 5 3 11 6 N 1018,9 20 0 0,2
15.12.2018 23:00:00 2,5 1,8 2,0 6,2 9,0 6 3 13 7 NNE 1019,0 11 0 0,0
15.12.2018 22:00:00 2,6 1,7 2,1 6,2 9,0 6 3 8 5 NE 1019,4 12 0 0,0
15.12.2018 21:00:00 2,5 1,3 1,7 6,1 9,0 5 3 8 5 N 1019,6 16 0 0,0
15.12.2018 20:00:00 2,4 1,1 1,8 6,2 9,0 5 3 9 5 ENE 1019,7 11 0 0,2
15.12.2018 19:00:00 2,3 0,5 1,6 6,1 9,0 3 2 4 2 NW 1020,2 20 0 0,0
15.12.2018 18:00:00 2,3 -0,1 1,4 6,1 9,0 3 2 11 6 NNE 1020,2 20 0 0,4
15.12.2018 17:00:00 2,5 -1,1 1,7 6,1 9,0 6 3 13 7 NNE 1020,4 20 0 0,0
15.12.2018 16:00:00 1,6 -1,7 1,2 6,0 9,1 6 3 16 9 NE 1021,0 20 0 0,2
15.12.2018 15:00:00 1,9 -1,7 2,1 6,0 9,1 7 4 10 6 N 1021,3 20 0 0,0
15.12.2018 14:00:00 2,7 -2,2 3,6 6,0 9,1 4 2 6 4 NNE 1021,3 20 0 0,0
15.12.2018 13:00:00 2,2 -1,6 3,6 6,0 9,1 3 1 12 6 ESE 1021,9 20 21 0,0
15.12.2018 12:00:00 0,7 -3,2 3,0 6,1 9,1 3 1 8 4 NNE 1023,1 20 8 0,0
15.12.2018 11:00:00 -0,8 -3,3 -0,9 6,1 9,1 5 3 15 8 NE 1024,0 20 48 0,0
15.12.2018 10:00:00 -1,9 -3,6 -4,5 6,2 9,1 8 4 12 6 ESE 1024,2 19 52 0,0
15.12.2018 09:00:00 -3,9 -4,7 -5,0 6,2 9,1 7 4 14 8 ESE 1024,3 20 2 0,0
15.12.2018 08:00:00 -4,2 -4,6 -5,0 6,2 9,1 0 0 10 5 N 1024,3 0,5 0 0,0
15.12.2018 07:00:00 -4,2 -4,6 -5,1 6,3 9,1 7 4 10 6 E 1024,3 0,1 0 0,0
15.12.2018 06:00:00 -4,1 -4,5 -4,9 6,4 9,1 0 0 11 6 N 1024,1 0,1 0 0,0
15.12.2018 05:00:00 -4,0 -4,4 -5,9 6,4 9,1 7 4 11 6 SW 1024,0 0,1 0 0,0
15.12.2018 04:00:00 -3,7 -4,4 -5,2 6,5 9,2 4 2 8 5 NNE 1023,8 20 0 0,0
15.12.2018 03:00:00 -3,2 -4,0 -4,9 6,6 9,2 2 1 7 4 SE 1023,9 2,1 0 0,0
15.12.2018 02:00:00 -3,0 -4,4 -4,4 6,7 9,2 4 2 19 10 N 1023,2 20 0 0,0
15.12.2018 01:00:00 -2,7 -4,1 -3,5 6,7 9,2 13 7 24 13 N 1023,1 20 0 0,0
15.12.2018 00:00:00 -2,4 -4,1 -3,2 6,8 9,2 16 9 23 12 N 1023,1 20 0 0,0
14.12.2018 23:00:00 -2,3 -3,7 -3,0 6,9 9,2 11 6 16 9 NNE 1022,8 20 0 0,0
14.12.2018 22:00:00 -1,6 -3,3 -2,8 6,9 9,2 9 5 16 9 NNE 1022,8 20 0 0,0
14.12.2018 21:00:00 -0,7 -3,1 -2,5 6,9 9,2 8 4 16 8 N 1022,2 20 0 0,0
14.12.2018 20:00:00 0,2 -3,2 -1,3 7,0 9,2 3 2 18 10 N 1021,4 20 0 0,0
14.12.2018 19:00:00 1,0 -1,4 -1,2 7,0 9,2 8 4 15 8 SSW 1020,9 20 0 0,0
14.12.2018 18:00:00 1,3 -1,9 -0,4 7,0 9,2 8 4 20 11 WSW 1020,4 20 0 0,0
14.12.2018 17:00:00 2,8 -1,4 2,4 6,9 9,3 4 2 34 18 WNW 1019,6 20 42 0,0
14.12.2018 16:00:00 4,2 -1,2 5,1 6,8 9,2 24 13 37 20 NW 1018,2 20 45 0,0
14.12.2018 15:00:00 5,9 -0,4 7,2 6,8 9,3 18 10 32 18 W 1016,6 20 58 0,0
14.12.2018 14:00:00 5,5 0,3 8,4 6,7 9,3 19 10 39 21 WNW 1016,1 20 60 0,0
14.12.2018 13:00:00 5,3 0,5 4,9 6,7 9,3 21 11 37 20 WNW 1016,1 20 31 0,0
14.12.2018 12:00:00 4,2 1,1 3,8 6,7 9,3 27 14 42 23 WNW 1016,5 20 0 0,0
14.12.2018 11:00:00 4,0 2,2 3,6 6,7 9,3 19 10 31 17 NW 1016,1 20 0 0,0
14.12.2018 10:00:00 3,8 2,6 2,9 6,7 9,3 7 4 25 13 NW 1015,6 20 0 0,0
14.12.2018 09:00:00 3,1 3,0 2,4 6,7 9,3 10 5 19 10 NW 1014,7 1,0 0 0,0
14.12.2018 08:00:00 2,7 2,6 2,3 6,7 9,4 0 0 4 2 N 1013,8 0,1 0 0,0
14.12.2018 07:00:00 2,7 2,6 2,4 6,7 9,4 3 1 3 2 WSW 1013,4 0,1 0 0,0
14.12.2018 06:00:00 2,7 2,4 2,3 6,7 9,4 0 0 3 2 N 1012,8 0,2 0 0,0
14.12.2018 05:00:00 2,6 2,3 2,3 6,7 9,4 0 0 2 1 N 1012,9 1,0 0 0,0
14.12.2018 04:00:00 2,6 2,3 2,3 6,7 9,4 0 0 4 2 N 1012,6 4,5 0 0,2
14.12.2018 03:00:00 2,6 2,3 2,2 6,7 9,4 0 0 3 1 N 1012,5 12 0 0,0
14.12.2018 02:00:00 2,5 2,2 2,1 6,7 9,4 0 0 5 3 N 1012,0 0,6 0 0,2
14.12.2018 01:00:00 2,6 2,3 2,2 6,8 9,4 3 1 5 3 ESE 1012,0 8 0 0,0
14.12.2018 00:00:00 2,6 2,3 2,2 6,7 9,4 4 2 5 3 E 1011,7 0,6 0 0,0
13.12.2018 23:00:00 2,6 2,3 2,1 6,8 9,5 0 0 10 5 N 1011,2 19 0 0,4
13.12.2018 22:00:00 2,8 2,5 2,4 6,8 9,5 11 6 17 9 WSW 1010,8 8 0 0,2
13.12.2018 21:00:00 3,3 3,0 2,9 6,8 9,5 6 3 8 4 W 1010,0 0,1 0 1,3
13.12.2018 20:00:00 3,2 2,9 2,9 6,8 9,5 6 3 10 5 N 1009,1 19 0 0,6
13.12.2018 19:00:00 3,6 3,3 3,3 6,7 9,5 5 3 13 7 N 1008,3 0,5 0 0,6
13.12.2018 18:00:00 3,7 3,4 3,4 6,7 9,5 6 4 14 7 NNE 1007,6 6 0 1,2
13.12.2018 17:00:00 3,7 3,4 3,3 6,7 9,5 4 2 12 7 NNE 1007,3 1,3 0 2,0
13.12.2018 16:00:00 3,7 3,1 3,5 6,7 9,5 7 4 10 6 NNE 1007,0 5 0 0,8
13.12.2018 15:00:00 4,1 2,9 3,6 6,7 9,5 0 0 4 2 N 1006,7 9 0 0,6
13.12.2018 14:00:00 4,3 2,3 3,9 6,7 9,6 3 1 8 5 S 1007,1 20 0 0,0
13.12.2018 13:00:00 4,2 1,6 4,0 6,7 9,6 4 2 16 8 ESE 1007,7 20 0 0,0
13.12.2018 12:00:00 3,9 1,6 3,6 6,7 9,6 6 4 15 8 SE 1008,1 20 0 0,0
13.12.2018 11:00:00 3,1 0,5 2,4 6,7 9,6 3 2 18 10 E 1009,0 20 0 0,0
13.12.2018 10:00:00 2,4 0,0 1,7 6,7 9,6 11 6 19 10 SSE 1009,3 20 0 0,0
13.12.2018 09:00:00 2,0 -0,1 0,3 6,8 9,6 8 5 15 8 SE 1009,6 20 0 0,0
13.12.2018 08:00:00 0,7 -0,2 -0,2 6,8 9,6 9 5 13 7 ENE 1009,9 20 0 0,0
13.12.2018 07:00:00 0,2 -0,1 -0,6 6,8 9,6 9 5 12 7 NE 1010,6 20 0 0,0
13.12.2018 06:00:00 -0,3 -0,4 -0,6 6,9 9,6 5 3 18 10 NNE 1011,5 0,3 0 0,0
13.12.2018 05:00:00 0,3 0,2 -1,0 6,9 9,7 12 7 16 9 NE 1011,9 4,5 0 0,0
13.12.2018 04:00:00 0,2 -0,1 -1,3 7,0 9,7 3 1 9 5 SE 1013,2 0,2 0 0,0
13.12.2018 03:00:00 0,4 0,1 -1,3 7,0 9,7 4 2 13 7 NNE 1013,6 1,4 0 0,0
13.12.2018 02:00:00 0,5 0,2 -1,5 7,0 9,7 10 6 19 10 NE 1013,9 0,9 0 0,0
13.12.2018 01:00:00 0,9 0,5 -0,6 7,0 9,7 8 4 11 6 NE 1015,1 0,5 0 0,0
13.12.2018 00:00:00 1,6 1,0 0,6 7,1 9,7 10 5 13 7 WSW 1015,8 2,9 0 0,0
12.12.2018 23:00:00 2,2 1,2 1,5 7,1 9,7 4 2 10 5 S 1016,1 13 0 0,0
12.12.2018 22:00:00 2,8 1,0 2,1 7,1 9,7 5 3 18 10 NNW 1016,4 20 0 0,0
12.12.2018 21:00:00 3,3 1,2 1,4 7,1 9,7 10 5 22 12 N 1016,7 20 0 0,0
12.12.2018 20:00:00 2,5 1,2 1,4 7,1 9,7 4 2 16 9 WSW 1017,4 8 0 0,0
12.12.2018 19:00:00 2,6 1,4 1,0 7,1 9,8 4 2 19 10 W 1017,8 20 0 0,0
12.12.2018 18:00:00 2,5 1,3 1,4 7,1 9,8 8 5 14 8 WSW 1018,0 20 0 0,0
12.12.2018 17:00:00 3,1 1,6 2,4 7,1 9,8 6 3 16 9 SW 1017,7 20 0 0,0
12.12.2018 16:00:00 3,2 1,2 - - - 11 6 18 10 SW 1018,1 20 - -
12.12.2018 15:00:00 4,0 1,5 3,6 7,0 9,8 8 4 15 8 SW 1018,2 20 0 0,0
12.12.2018 14:00:00 3,5 0,9 3,8 6,9 9,8 7 4 15 8 SW 1018,6 20 3 0,0
12.12.2018 13:00:00 3,7 0,4 3,8 6,9 9,8 5 3 14 8 WSW 1019,3 20 2 0,0
12.12.2018 12:00:00 3,3 -0,3 5,6 6,9 9,8 8 5 13 7 SSW 1020,0 20 37 0,0
12.12.2018 11:00:00 3,7 -1,7 6,0 7,0 9,8 4 2 9 5 SSE 1020,3 20 60 0,0
12.12.2018 10:00:00 1,5 -3,2 -0,4 7,0 9,9 5 3 11 6 SSW 1021,2 20 40 0,0
12.12.2018 09:00:00 0,9 -3,2 -1,6 7,1 9,9 8 5 14 8 NNE 1021,4 20 0 0,0
12.12.2018 08:00:00 -0,2 -4,5 -1,6 7,1 9,9 4 2 8 4 E 1021,6 20 0 0,0
12.12.2018 07:00:00 -0,1 -4,4 -1,8 7,2 9,9 4 2 7 4 WSW 1021,6 20 0 0,0
12.12.2018 06:00:00 -0,2 -4,1 -2,3 7,3 9,9 6 3 7 4 SW 1021,3 20 0 0,0
12.12.2018 05:00:00 -0,2 -4,3 -1,6 7,4 9,9 0 0 5 3 N 1021,7 20 0 0,0
12.12.2018 04:00:00 0,1 -4,2 -1,5 7,4 9,9 3 1 13 7 NNE 1022,0 20 0 0,0
12.12.2018 03:00:00 0,3 -4,2 -1,6 7,5 9,9 6 3 11 6 NNE 1022,1 20 0 0,0
12.12.2018 02:00:00 0,4 -4,6 -1,4 7,6 9,9 0 0 16 9 N 1022,1 20 0 0,0
12.12.2018 01:00:00 0,9 -4,3 -0,8 7,7 9,9 6 3 16 9 NE 1021,7 20 0 0,0
12.12.2018 00:00:00 1,5 -4,4 -0,4 7,7 9,9 9 5 19 10 NNE 1021,7 20 0 0,0
11.12.2018 23:00:00 1,3 -4,0 -0,5 7,8 9,9 14 7 26 14 NNE 1021,9 20 0 0,0
11.12.2018 22:00:00 1,4 -3,5 0,2 7,8 10,0 17 9 29 16 NNE 1021,7 20 0 0,0
11.12.2018 21:00:00 1,8 -3,1 0,3 7,8 10,0 17 9 26 14 NNE 1022,0 20 0 0,0
11.12.2018 20:00:00 2,5 -2,2 1,2 7,9 10,0 19 10 32 17 NNE 1021,7 20 0 0,0
11.12.2018 19:00:00 3,6 -2,0 2,3 7,8 10,0 23 12 31 17 N 1021,1 20 0 0,0
11.12.2018 18:00:00 4,4 -1,6 3,0 7,8 10,0 22 12 27 14 N 1020,8 20 0 0,0
11.12.2018 17:00:00 5,8 -1,6 4,8 7,7 10,0 19 10 29 16 N 1020,2 20 27 0,0
11.12.2018 16:00:00 7,0 -1,9 8,6 7,6 10,0 18 10 25 13 N 1020,1 20 57 0,0
11.12.2018 15:00:00 7,6 -1,1 11,6 7,5 10,0 13 7 22 12 NNE 1020,3 20 60 0,0
11.12.2018 14:00:00 7,3 -1,2 11,7 7,4 10,0 15 8 29 16 N 1021,0 20 60 0,0
11.12.2018 13:00:00 6,2 -0,1 10,4 7,4 10,1 17 9 23 12 N 1022,1 20 60 0,0
11.12.2018 12:00:00 5,0 -1,0 7,9 7,4 10,1 8 5 17 9 NNE 1023,3 20 60 0,0

tt = Température de l'air
td = dewpoint
tt 5cm = Température de l'air 5cm
tt -20cm = Température de l'air -20cm
tt -100cm = Température de l'air -100cm
ff = Vitesse du vent
fx = gusts
dd = Direction du vent
ppp = reduced air pressure
vv = visibility
sd = Ensoleillement
rr = Quantités de précipitations

stations d'obs. à proximité